Location: Curicchi
(45.0167°N, 12.0500°E)
Time: 15:53:48
(UTC+00:00)

Cosmos 1709 Rocket - Visible Passes

Search period start: 24 September 2020 00:00
Search period end: 04 October 2020 00:00
Orbit: 947 x 1003 km, 82.9° (Epoch: 23 September)

Date Brightness Start Highest point End Pass type
(mag) Time Alt. Az. Time Alt. Az. Time Alt. Az.
24 Sep 6.1 21:30:13 10° N 21:32:01 19° NNE 21:32:01 19° NNE visible
24 Sep 6.5 23:15:51 10° NNW 23:16:39 14° NNW 23:16:39 14° NNW visible
25 Sep 6.1 21:55:14 10° N 21:57:00 20° N 21:57:00 20° N visible
26 Sep 6.2 20:36:06 10° NNE 20:37:22 14° NNE 20:37:22 14° NNE visible
26 Sep 6.2 22:20:31 10° NNW 22:22:01 18° NNW 22:22:01 18° NNW visible
27 Sep 6.0 21:00:40 10° N 21:02:23 18° NNE 21:02:23 18° NNE visible
27 Sep 6.5 22:46:03 10° NNW 22:47:01 15° NNW 22:47:01 15° NNW visible
28 Sep 6.1 21:25:37 10° N 21:27:24 20° N 21:27:24 20° N visible
28 Sep 6.7 23:12:01 10° NW 23:12:02 10° NW 23:12:02 10° NW visible
29 Sep 6.2 20:06:45 10° NNE 20:07:46 13° NNE 20:07:46 13° NNE visible
29 Sep 6.2 21:50:49 10° N 21:52:25 19° NNW 21:52:25 19° NNW visible
30 Sep 6.0 20:31:10 10° N 20:32:47 17° NNE 20:32:47 17° NNE visible
30 Sep 6.4 22:16:17 10° NNW 22:17:27 16° NNW 22:17:27 16° NNW visible
01 Oct 6.0 20:56:01 10° N 20:57:50 20° N 20:57:50 20° N visible
01 Oct 6.7 22:42:06 10° NNW 22:42:29 12° NNW 22:42:29 12° NNW visible
02 Oct 6.1 19:37:28 10° NNE 19:38:15 12° NNE 19:38:15 12° NNE visible
02 Oct 6.1 21:21:09 10° N 21:22:54 20° N 21:22:54 20° N visible
03 Oct 6.0 20:01:40 10° NNE 20:03:18 17° NNE 20:03:18 17° NNE visible
03 Oct 6.3 21:46:32 10° NNW 21:47:58 18° NNW 21:47:58 18° NNW visible
